PEGASUS R/B, 41892

Orbit data source: Space-Track

PEGASUS R/B, 41892 is space debris in LEO originally from a launch on Thu, 15 Dec 2016 UTC launched from the Pegasus Launch, Eastern Range Air Space (ERAS). Debris objects in space refer to the collection of defunct objects orbiting the Earth. Examples of debris include non-operational satellites, rocket bodies, and fragments generated from explosions, collisions, or faulty payload assembly.

Loading next visibility...
Identifier
41892, 2016-078J
Orbit
LEO
Last TLE update
12 hours ago
Origin
Manufacturer
OATK FSG Utah
Mission
Spacecraft
Bus & Motor
ORION 38, Unknown motor
Mass
315 kg wet, 202 kg dry
Launch date (UTC)
2016-12-15 (8 years ago)
Launch vehicle
Unknown
Launch site
Pegasus Launch, Eastern Range Air Space (ERAS)
Object type
Payload
Rocket body
Debris
Shape & HBR
Cyl + 1 Nozzle, 1.4 m
Radar Cross Section
1.427 m², Large (>1 m²)

Expand to show TLE details & history

TLE from 12 hours ago
0 PEGASUS R/B
1 41892U 16078J   25128.88063434  .00022330  00000-0  44983-3 0  9991
2 41892  34.9373 337.5419 0010798 345.2596  14.7808 15.45554099466625
Epoch: 2025-05-08T21:08Z
Definitive object data (Epoch: 2025-05-08T21:08:06.806Z)
Latitude
-0.00007°
Longitude
153.56866°
Altitude
421.535 km
Speed
7.665 km/s
True Right ascension
22h 30m 10s
True Declination
0° 00' 00"
Sunlit
Object was in daylight at TLE epoch
Visualization TLE readout
Latitude
-11.11968°
Longitude
133.97824°
Altitude
423.434 km
Speed
7.663 km/s
Apparent Right ascension
00h 16m 52s
Apparent Declination
-44° 28' 55"
Sunlit
Object is in daylight
Visualization observer readout
Local Sidereal Time
17:36:30
Azimuth
123.059° SE
Elevation
-33.058°
Doppler factor
1
Orbital elements
Apogee altitude
440.397 km
Perigee altitude
425.688 km
Semi-major axis
6,811.18 km
Eccentricity
0.0010798
Inclination
34.9373°
RAAN
337.5419°
Arg. of periapsis
345.2596°
True anomaly
14.81241°
Mean anomaly
14.7808°
Eccentric anomaly
14.7966°
Mean motion
3.86109 °/min
BSTAR
0.00044983
Orbital period
93.24 mins
Loading maneuver chart data...
Loading SW <> Apogee altitude chart data...
Loading historical data...
Loading historical data...
Loading historical data...
Loading historical data...
Loading historical data...
Loading historical data...
Loading historical data...

PEGASUS R/B Visibility forecast

Observer location: undefined°, undefined°

Span
Click to sort rows by Start time (UTC) header in descending order
Start Az.
Max El. time (UTC)
Max El. Az.
Max El.
End time (UTC)
End Az.
4 mins2025-05-09 19:10:10.556Z211.512° SW2025-05-09 19:11:10.556Z179.208° S27.752°2025-05-09 19:14:10.556Z110.624° ESE
4 mins2025-05-09 20:48:10.556Z224.008° SW2025-05-09 20:49:10.556Z192.282° SSW26.871°2025-05-09 20:52:10.556Z126.527° SE
|